[Iaude] MPEC A02: 2023 WY [a=1.78,e=0.56,i=7.3,H=21.55]

mpec at marsden.cfa.harvard.edu mpec at marsden.cfa.harvard.edu
Sun Dec 31 19:42:36 EST 2023


M.P.E.C. 2024-A02                               Issued 2024 January 1, 00:41 UT

     The Minor Planet Electronic Circulars contain information on unusual
         minor planets, routine data on comets and natural satellites,
         and occasional editorial announcements.  They are published
    on behalf of Division F of the International Astronomical Union by the
          Minor Planet Center, Smithsonian Astrophysical Observatory,
                          Cambridge, MA 02138, U.S.A.
			  
             Prepared using the Tamkin Foundation Computer Network

                              MPC at CFA.HARVARD.EDU
            URL https://www.minorplanetcenter.net/    ISSN 1523-6714

                                    2023 WY                                     


                           Revision to MPEC 2023-W42                            

Additional Observations:
     K23W00Y  C2012 06 09.32767 16 42 48.829+01 53 59.80         20.8 rLEA002F51
     K23W00Y  C2012 06 09.33796 16 42 47.953+01 53 48.81         20.7 rLEA002F51
     K23W00Y  C2012 06 15.38892 16 36 15.370+00 13 12.95         21.1 wLEA002F51
     K23W00Y  C2012 06 15.38958 16 36 15.316+00 13 12.38         21.2 wLEA002F51
     K23W00Y  C2012 06 15.40254 16 36 14.543+00 12 59.90         20.9 wLEA002F51
     K23W00Y  C2012 06 15.40320 16 36 14.502+00 12 59.21         21.0 wLEA002F51
     K23W00Y  C2012 06 15.41614 16 36 13.724+00 12 46.78         21.3 wLEA002F51
     K23W00Y  C2012 06 15.41681 16 36 13.688+00 12 46.32         21.5 wLEA002F51
     K23W00Y  C2012 06 15.42986 16 36 12.884+00 12 33.64         21.2 wLEA002F51
     K23W00Y  C2012 06 15.43052 16 36 12.860+00 12 33.14         21.2 wLEA002F51

Observer details:
F51 Pan-STARRS 1, Haleakala.  Observers N. Primak, A. Schultz, S. Watters, J.
    Thiel, T. Goggia.  Measurer P.-S. 1. S. Consortium.  1.8-m Ritchey-
    Chretien + CCD.

Orbital elements:
2023 WY                                                  Earth MOID = 0.0592 AU
Epoch 2023 Sept. 13.0 TT = JDT 2460200.5                Veres                   
M 296.71072              (2000.0)            P               Q                  
n   0.41334727     Peri.  320.02684     -0.90878680     -0.41586564             
a   1.7848128      Node   195.50467     +0.40796757     -0.86842727             
e   0.5644188      Incl.    7.32730     +0.08757291     -0.26998121             
P   2.38           H   21.55          G   0.15           U   1                  
Residuals in seconds of arc
120609 F51  0.0   0.1+    231118 033  0.0   0.1-    231203 807  0.1-  0.6+
120609 F51  0.1+  0.3-    231118 033  0.0   0.2+    231203 807  0.7-  0.2+
120615 F51  0.0   0.1-    231118 958  0.8+  0.5-    231203 858  0.5+  0.6+
120615 F51  0.3-  0.0     231118 958  0.1-  0.9+    231203 858  0.1-  0.1+
120615 F51  0.1-  0.0     231118 958  0.7-  1.1+    231203 858  0.0   0.3+
120615 F51  0.1-  0.1-    231118 H21  0.5-  0.1+    231204 807  0.5+  0.0
120615 F51  0.0   0.0     231118 H21  0.1+  0.1+    231204 807  0.1+  0.1+
120615 F51  0.0   0.1+    231118 H21  0.1+  0.3+    231204 807  0.4+  0.3-
120615 F51  0.2-  0.0     231118 H21  0.1+  0.4+    231206 F51  0.1-  0.1+
120615 F51  0.0   0.2+    231118 H21  0.2+  0.0     231206 F51  0.0   0.1-
231117 F52  0.1-  0.1-    231120 807  0.1-  0.4-    231206 F51  0.1+  0.1+
231117 F52  0.1+  0.0     231120 807  0.3-  0.2+    231206 F51  0.1+  0.3+
231117 F52  0.0   0.0     231120 807  0.5+  0.4+    231208 G96  0.2-  0.4-
231117 F52  0.0   0.1-    231121 474  0.2+  0.1-    231208 G96  0.0   0.2-
231117 F52  0.1+  0.0     231121 474  0.3+  0.1-    231208 G96  0.2+  0.0
231117 F52  0.1+  0.0     231121 474  0.2+  0.3-    231208 G96  0.1-  0.1+
231117 F52  0.1-  0.0     231121 474  0.3-  0.3-    231215 807  0.1+  0.1+
231117 F52  0.2-  0.1+    231122 807  0.1+  0.7-    231215 807  0.2+  0.2+
231117 L01  1.3-  0.3-    231122 807  0.0   1.0+    231215 807  0.5+  0.5-
231117 L01  0.8-  0.1+    231122 691  0.1+  0.5-    231231 807  0.1+  0.1+
231117 L01  0.2-  0.4+    231122 807  0.3+  0.4+    231231 807  0.1+  0.0
231117 L01  0.2-  0.3+    231122 691  0.2+  0.1+    231231 807  0.3-  0.5+
231117 L01  0.3-  0.4-    231122 691  0.0   0.2-
231118 033  0.4-  0.1+    231203 807  0.7-  0.7+

Ephemeris:
2023 WY                  a,e,i = 1.78, 0.56, 7                   q = 0.7774
Date    TT    R. A. (2000) Decl.     Delta      r    Elong.  Phase     V
2023 12 02    03 01 45.0 -06 43 24   0.3020  1.2435   144.2    27.6    20.7
...
2023 12 17    02 15 10.5 -18 27 57   0.2443  1.1119   115.6    52.9    20.7
...
2023 12 25    01 45 30.9 -25 07 55   0.2229  1.0434    99.4    68.4    20.8
...
2023 12 31    01 19 17.4 -30 20 56   0.2093  0.9939    86.8    81.1    21.0
2024 01 01    01 14 23.6 -31 14 21   0.2072  0.9858    84.6    83.3    21.0
2024 01 02    01 09 18.4 -32 08 04   0.2052  0.9778    82.5    85.5    21.1
...
2024 01 08    00 33 39.4 -37 33 11   0.1946  0.9317    69.1    99.7    21.5
...
2024 01 16    23 26 31.7 -44 03 03   0.1870  0.8763    50.3   120.2    22.5
...
2024 01 31    20 40 43.3 -44 30 41   0.2134  0.8007    26.9   146.1    25.5

A. U. Tomatic                (C) Copyright 2024 MPC           M.P.E.C. 2024-A02




More information about the Iaude mailing list